SVFLIR Weather Reports


Display with metric or nautical units.
time (UTC)temp
F
wind
direction
speed
MPH
gust
MPH
rain 1hr
in
rain 24hr
in
rain mn
in
humidity
%
barometer
mb
20260903011415 94 250 13.0 16.0 0.00 0.00 0.00 100 1009.4
20260903010914 94 250 11.0 14.0 0.00 0.00 0.00 100 1009.4
20260903010414 94 240 6.0 14.0 0.00 0.00 0.00 100 1009.4
20260903005913 94 243 7.0 14.0 0.00 0.00 0.00 100 1009.4
20260903005413 95 274 6.0 13.0 0.00 0.00 0.00 100 1009.4
20260903004912 94 243 10.0 13.0 0.00 0.00 0.00 100 1009.4
20260903004635 94 205 7.0 13.0 0.00 0.00 0.00 100 1009.4
20260903003911 95 255 0.0 13.0 0.00 0.00 0.00 100 1009.4
20260903003408 95 243 9.0 13.0 0.00 0.00 0.00 100 1009.4
20260903002907 94 267 9.0 14.0 0.00 0.00 0.00 100 1009.4
20260903001907 94 275 10.0 16.0 0.00 0.00 0.00 100 1009.4
20260903001406 95 251 5.0 18.0 0.00 0.00 0.00 100 1009.4
20260903000905 95 267 8.0 18.0 0.00 0.00 0.00 100 1009.4
20260903000405 95 239 13.0 17.0 0.00 0.00 0.00 100 1009.4
20260902235904 96 291 10.0 13.0 0.00 0.00 0.00 100 1009.4
20260902235403 95 209 6.0 13.0 0.00 0.00 0.00 100 1009.4
20260902234903 95 223 9.0 16.0 0.00 0.00 0.00 100 1009.4
20260902234623 95 254 4.0 16.0 0.00 0.00 0.00 100 1009.4
20260902233902 96 246 10.0 15.0 0.00 0.00 0.00 100 1009.4
20260902233401 96 275 8.0 13.0 0.00 0.00 0.00 100 1009.4
20260902232900 96 268 7.0 13.0 0.00 0.00 0.00 100 1009.4
20260902232359 95 288 7.0 15.0 0.00 0.00 0.00 100 1009.4
20260902231900 95 307 8.0 18.0 0.00 0.00 0.00 100 1009.4
20260902231359 95 247 5.0 18.0 0.00 0.00 0.00 100 1009.4
20260902230858 96 260 14.0 18.0 0.00 0.00 0.00 100 1009.4
20260902230402 96 257 10.0 17.0 0.00 0.00 0.00 100 1009.4
20260902225356 95 310 9.0 20.0 0.00 0.00 0.00 100 1009.4
20260902224856 96 253 10.0 20.0 0.00 0.00 0.00 100 1009.4
20260902224355 96 248 12.0 15.0 0.00 0.00 0.00 100 1009.4
20260902223855 96 241 10.0 16.0 0.00 0.00 0.00 100 1009.4
20260902223354 95 285 10.0 16.0 0.00 0.00 0.00 100 1009.4
20260902222853 97 264 9.0 16.0 0.00 0.00 0.00 100 1009.4
20260902222353 95 250 9.0 17.0 0.00 0.00 0.00 100 1009.4
20260902221852 96 254 15.0 17.0 0.00 0.00 0.00 100 1009.4
20260902221351 96 278 6.0 17.0 0.00 0.00 0.00 100 1009.4
20260902220851 94 220 9.0 17.0 0.00 0.00 0.00 100 1009.4
20260902220350 95 240 10.0 17.0 0.00 0.00 0.00 100 1009.4
20260902215850 96 225 9.0 17.0 0.00 0.00 0.00 100 1009.4
20260902215349 94 268 10.0 15.0 0.00 0.00 0.00 100 1009.4
20260902215113 94 282 9.0 19.0 0.00 0.00 0.00 100 1009.4
20260902214348 97 216 10.0 19.0 0.00 0.00 0.00 100 1009.4
20260902213847 94 271 12.0 19.0 0.00 0.00 0.00 100 1009.4
20260902213346 94 265 6.0 15.0 0.00 0.00 0.00 100 1009.4
20260902212846 95 246 4.0 17.0 0.00 0.00 0.00 100 1009.4
20260902211845 96 267 8.0 16.0 0.00 0.00 0.00 100 1009.4
20260902211345 96 264 9.0 19.0 0.00 0.00 0.00 100 1009.4
20260902210844 94 275 9.0 19.0 0.00 0.00 0.00 100 1009.4
20260902210343 93 295 10.0 13.0 0.00 0.00 0.00 100 1009.4
20260902205843 93 247 1.0 16.0 0.00 0.00 0.00 100 1009.4
20260902205342 93 255 9.0 18.0 0.00 0.00 0.00 100 1009.4
20260902204841 93 234 9.0 18.0 0.00 0.00 0.00 100 1009.4
20260902204341 93 248 12.0 18.0 0.00 0.00 0.00 100 1009.4
20260902203840 91 265 11.0 15.0 0.00 0.00 0.00 100 1009.4
20260902203339 94 243 9.0 15.0 0.00 0.00 0.00 100 1009.4
20260902202839 95 264 8.0 18.0 0.00 0.00 0.00 100 1009.4
20260902202339 95 274 7.0 20.0 0.00 0.00 0.00 100 1009.4
20260902201838 95 195 11.0 20.0 0.00 0.00 0.00 100 1009.4
20260902201557 97 205 6.0 13.0 0.00 0.00 0.00 100 1009.4
20260902200836 97 268 7.0 13.0 0.00 0.00 0.00 100 1009.4
20260902200328 96 295 3.0 9.0 0.00 0.00 0.00 100 1009.4
20260902195827 94 165 6.0 11.0 0.00 0.00 0.00 100 1009.4
20260902195327 97 192 1.0 15.0 0.00 0.00 0.00 100 1009.4
20260902194826 97 225 6.0 15.0 0.00 0.00 0.00 100 1009.4
20260902194325 96 247 9.0 15.0 0.00 0.00 0.00 100 1009.4
20260902193825 94 278 4.0 9.0 0.00 0.00 0.00 100 1009.4
20260902193324 93 212 0.0 9.0 0.00 0.00 0.00 100 1009.4
20260902192813 92 198 6.0 13.0 0.00 0.00 0.00 100 1009.4
20260902192312 93 153 3.0 13.0 0.00 0.00 0.00 100 1009.4
20260902191812 94 199 9.0 15.0 0.00 0.00 0.00 100 1009.4
20260902191311 94 140 9.0 15.0 0.00 0.00 0.00 100 1009.4
20260902190811 95 163 8.0 12.0 0.00 0.00 0.00 100 1009.4
20260902190529 92 144 2.0 14.0 0.00 0.00 0.00 100 1009.4
20260902190315 92 144 2.0 14.0 0.00 0.00 0.00 100 1009.4
20260902190030 92 246 9.0 14.0 0.00 0.00 0.00 100 1009.4
20260902185307 91 234 10.0 14.0 0.00 0.00 0.00 100 1009.4
20260902184807 91 177 8.0 11.0 0.00 0.00 0.00 100 1009.4
20260902184306 90 140 7.0 11.0 0.00 0.00 0.00 100 1009.4
20260902184024 90 167 6.0 10.0 0.00 0.00 0.00 100 1009.4
20260902183305 87 150 0.0 14.0 0.00 0.00 0.00 100 1009.4
20260902182804 88 140 5.0 14.0 0.00 0.00 0.00 100 1009.4
20260902182306 90 195 10.0 14.0 0.00 0.00 0.00 100 1009.4
20260902181803 91 237 4.0 11.0 0.00 0.00 0.00 100 1009.4
20260902181302 90 195 2.0 11.0 0.00 0.00 0.00 100 1009.4
20260902180801 88 154 8.0 13.0 0.00 0.00 0.00 100 1009.4
20260902180524 89 208 7.0 13.0 0.00 0.00 0.00 100 1009.4
20260902180321 89 208 7.0 13.0 0.00 0.00 0.00 100 1009.4
20260902180022 89 195 9.0 13.0 0.00 0.00 0.00 100 1009.4
20260902175519 90 194 0.0 14.0 0.00 0.00 0.00 100 1009.4
20260902174759 90 234 6.0 14.0 0.00 0.00 0.00 100 1009.4
20260902174258 91 257 9.0 14.0 0.00 0.00 0.00 100 1009.4
20260902173758 89 112 1.0 9.0 0.00 0.00 0.00 100 1009.4
20260902173518 81 153 4.0 9.0 0.00 0.00 0.00 100 1009.4
20260902173325 81 153 4.0 9.0 0.00 0.00 0.00 100 1009.4
20260902172252 87 171 5.0 9.0 0.00 0.00 0.00 100 1009.4
20260902172018 87 57 0.0 5.0 0.00 0.00 0.00 100 1009.4
20260902171249 86 236 0.0 5.0 0.00 0.00 0.00 100 1009.4
20260902170748 87 205 0.0 0.0 0.00 0.00 0.00 100 1009.4
20260902170459 89 205 0.0 8.0 0.00 0.00 0.00 100 1009.4
20260902165729 87 205 0.0 8.0 0.00 0.00 0.00 100 1009.4
20260902165208 89 167 2.0 8.0 0.00 0.00 0.00 100 1009.4
20260902164707 87 187 0.0 7.0 0.00 0.00 0.00 100 1009.4
20260902164207 88 156 1.0 6.0 0.00 0.00 0.00 100 1009.4
20260902163657 87 174 3.0 9.0 0.00 0.00 0.00 100 1009.4
20260902163157 87 187 0.0 9.0 0.00 0.00 0.00 100 1009.4
20260902162656 87 182 7.0 9.0 0.00 0.00 0.00 100 1009.4
20260902161917 86 223 2.0 6.0 0.00 0.00 0.00 100 1009.4
20260902161630 86 203 5.0 9.0 0.00 0.00 0.00 100 1009.4
20260902160646 83 229 4.0 9.0 0.00 0.00 0.00 100 1009.4
20260902160145 85 170 6.0 9.0 0.00 0.00 0.00 100 1009.4
20260902155904 83 236 0.0 6.0 0.00 0.00 0.00 100 1009.4
20260902155138 85 239 3.0 8.0 0.00 0.00 0.00 100 1009.4
20260902154637 84 215 5.0 8.0 0.00 0.00 0.00 100 1009.4
20260902154402 85 187 3.0 9.0 0.00 0.00 0.00 100 1009.4
20260902153636 85 226 0.0 9.0 0.00 0.00 0.00 100 1009.4
20260902153135 85 164 2.0 8.0 0.00 0.00 0.00 100 1009.4
20260902152634 84 139 4.0 7.0 0.00 0.00 0.00 100 1009.4
20260902152355 83 165 4.0 8.0 0.00 0.00 0.00 100 1009.4
20260902151633 83 184 5.0 9.0 0.00 0.00 0.00 100 1009.4
20260902151354 83 156 6.0 9.0 0.00 0.00 0.00 100 1009.4
20260902150632 82 212 4.0 9.0 0.00 0.00 0.00 100 1009.4
20260902150135 82 160 6.0 9.0 0.00 0.00 0.00 100 1009.4
20260902145631 82 189 5.0 9.0 0.00 0.00 0.00 100 1009.4
20260902145131 82 172 6.0 9.0 0.00 0.00 0.00 100 1009.4
20260902144630 81 208 6.0 9.0 0.00 0.00 0.00 100 1009.4
20260902144130 81 194 6.0 8.0 0.00 0.00 0.00 100 1009.4
20260902143134 78 246 4.0 8.0 0.00 0.00 0.00 100 1009.4
20260902142628 76 199 2.0 5.0 0.00 0.00 0.00 100 1009.4
20260902142127 76 230 4.0 5.0 0.00 0.00 0.00 100 1009.4
20260902141627 76 132 0.0 0.0 0.00 0.00 0.00 100 1009.4
20260902141346 76 132 0.0 0.0 0.00 0.00 0.00 100 1009.4
20260902140622 77 132 0.0 0.0 0.00 0.00 0.00 100 1009.4
20260902140244 70 132 0.0 0.0 0.00 0.00 0.00 100 1009.4
20260902140240 77 132 0.0 0.0 0.00 0.00 0.00 100 1009.4
20260902140236 76 132 0.0 0.0 0.00 0.00 0.00 100 1009.4
20260902140232 68 132 0.0 0.0 0.00 0.00 0.00 100 1009.4
20260902134312 72 132 0.0 0.0 0.00 0.00 0.00 100 1009.4
20260902133030 69 132 0.0 0.0 0.00 0.00 0.00 100 1009.4
20260902132523 70 132 0.0 0.0 0.00 0.00 0.00 100 1009.4
20260902132009 69 132 0.0 0.0 0.00 0.00 0.00 100 1009.4
20260902131724 70 132 0.0 0.0 0.00 0.00 0.00 100 1009.4
20260902130949 71 132 0.0 0.0 0.00 0.00 0.00 100 1009.4
20260902130703 72 132 0.0 0.0 0.00 0.00 0.00 100 1009.4
20260902125925 72 132 0.0 0.0 0.00 0.00 0.00 100 1009.4
20260902125418 74 132 0.0 0.0 0.00 0.00 0.00 100 1009.4
20260902124906 73 132 0.0 0.0 0.00 0.00 0.00 100 1009.4
20260902124351 72 132 0.0 0.0 0.00 0.00 0.00 100 1009.4
20260902123331 75 132 0.0 0.0 0.00 0.00 0.00 100 1009.4
20260902122804 69 132 0.0 0.0 0.00 0.00 0.00 100 1009.4
20260902122249 73 132 0.0 0.0 0.00 0.00 0.00 100 1009.4
20260902121749 71 132 0.0 0.0 0.00 0.00 0.00 100 1009.4
20260902121224 72 132 0.0 0.0 0.00 0.00 0.00 100 1009.4
20260902120723 74 132 0.0 0.0 0.00 0.00 0.00 100 1009.4
20260902120219 67 132 0.0 0.0 0.00 0.00 0.00 100 1009.4
20260902115707 72 132 0.0 0.0 0.00 0.00 0.00 100 1009.4
20260902115427 72 132 0.0 0.0 0.00 0.00 0.00 100 1009.4
20260902114700 74 132 0.0 0.0 0.00 0.00 0.00 100 1009.4
20260902114155 74 132 0.0 0.0 0.00 0.00 0.00 100 1009.4
20260902113640 74 132 0.0 0.0 0.00 0.00 0.00 100 1009.4
20260902113138 74 132 0.0 0.0 0.00 0.00 0.00 100 1009.4
20260902112633 75 132 0.0 0.0 0.00 0.00 0.00 100 1009.4
20260902112132 75 132 0.0 0.0 0.00 0.00 0.00 100 1009.4
20260902111848 76 132 0.0 0.0 0.00 0.00 0.00 100 1009.4
20260902111119 77 132 0.0 0.0 0.00 0.00 0.00 100 1009.4
20260902110619 73 132 0.0 0.0 0.00 0.00 0.00 100 1009.4
20260902110327 76 132 0.0 0.0 0.00 0.00 0.00 100 1009.4
20260902105606 72 132 0.0 0.0 0.00 0.00 0.00 100 1009.4
20260902104530 75 132 0.0 0.0 0.00 0.00 0.00 100 1009.4
20260902104021 73 132 0.0 0.0 0.00 0.00 0.00 100 1009.4
20260902103744 73 132 0.0 0.0 0.00 0.00 0.00 100 1009.4
20260902103236 75 132 0.0 0.0 0.00 0.00 0.00 100 1009.4
20260902102502 76 132 0.0 0.0 0.00 0.00 0.00 100 1009.4
20260902101948 76 132 0.0 0.0 0.00 0.00 0.00 100 1009.4
20260902101441 75 132 0.0 0.0 0.00 0.00 0.00 100 1009.4
20260902100928 76 132 0.0 0.0 0.00 0.00 0.00 100 1009.4
20260902100427 76 132 0.0 0.0 0.00 0.00 0.00 100 1009.4
20260902095921 77 132 0.0 0.0 0.00 0.00 0.00 100 1009.4
20260902095354 78 132 0.0 0.0 0.00 0.00 0.00 100 1009.4
20260902094849 78 132 0.0 0.0 0.00 0.00 0.00 100 1009.4
20260902094346 78 132 0.0 0.0 0.00 0.00 0.00 100 1009.4
20260902093844 79 132 0.0 0.0 0.00 0.00 0.00 100 1009.4
20260902093335 79 132 0.0 0.0 0.00 0.00 0.00 100 1009.4
20260902092824 79 132 0.0 0.0 0.00 0.00 0.00 100 1009.4
20260902092314 78 132 0.0 0.0 0.00 0.00 0.00 100 1009.4
20260902092028 78 132 0.0 1.0 0.00 0.00 0.00 100 1009.4
20260902091244 78 132 0.0 2.0 0.00 0.00 0.00 100 1009.4
20260902091004 79 132 0.0 4.0 0.00 0.00 0.00 100 1009.4
20260902090231 80 232 0.0 4.0 0.00 0.00 0.00 100 1009.4
20260902085724 80 271 1.0 4.0 0.00 0.00 0.00 100 1009.4
20260902085223 80 160 0.0 0.0 0.00 0.00 0.00 100 1009.4
20260902084718 80 160 0.0 0.0 0.00 0.00 0.00 100 1009.4
20260902084216 80 160 0.0 0.0 0.00 0.00 0.00 100 1009.4
20260902083649 80 160 0.0 3.0 0.00 0.00 0.00 100 1009.4
20260902083122 80 160 0.0 3.0 0.00 0.00 0.00 100 1009.4
20260902082615 80 130 1.0 4.0 0.00 0.00 0.00 100 1009.4
20260902082114 80 132 1.0 5.0 0.00 0.00 0.00 100 1009.4
20260902081614 80 199 0.0 6.0 0.00 0.00 0.00 100 1009.4
20260902081113 80 151 4.0 6.0 0.00 0.00 0.00 100 1009.4
20260902080612 80 120 0.0 0.0 0.00 0.00 0.00 100 1009.4
20260902080112 80 120 0.0 4.0 0.00 0.00 0.00 100 1009.4
20260902075607 80 120 0.0 4.0 0.00 0.00 0.00 100 1009.4
20260902075052 80 120 1.0 4.0 0.00 0.00 0.00 100 1009.4
20260902074809 81 144 0.0 4.0 0.00 0.00 0.00 100 1009.4
20260902074045 80 144 1.0 4.0 0.00 0.00 0.00 100 1009.4
20260902073543 79 202 1.0 6.0 0.00 0.00 0.00 100 1009.4
20260902073038 79 244 0.0 7.0 0.00 0.00 0.00 100 1009.4
20260902072521 79 172 2.0 7.0 0.00 0.00 0.00 100 1009.4
20260902072019 79 206 3.0 7.0 0.00 0.00 0.00 100 1009.4
20260902071518 79 240 1.0 5.0 0.00 0.00 0.00 100 1009.4
20260902071017 79 267 0.0 4.0 0.00 0.00 0.00 100 1009.4
20260902070457 79 267 0.0 4.0 0.00 0.00 0.00 100 1009.4
20260902065949 77 225 0.0 4.0 0.00 0.00 0.00 100 1009.4
20260902065449 76 113 0.0 4.0 0.00 0.00 0.00 100 1009.4
20260902064942 79 142 1.0 3.0 0.00 0.00 0.00 100 1009.4
20260902064713 79 126 0.0 0.0 0.00 0.00 0.00 100 1009.4
20260902063426 78 126 0.0 0.0 0.00 0.00 0.00 100 1009.4
20260902062920 80 126 0.0 0.0 0.00 0.00 0.00 100 1009.4
20260902062410 80 126 0.0 0.0 0.00 0.00 0.00 100 1009.4
20260902061900 81 126 0.0 0.0 0.00 0.00 0.00 100 1009.4
20260902061353 81 126 0.0 0.0 0.00 0.00 0.00 100 1009.4
20260902060853 83 126 0.0 5.0 0.00 0.00 0.00 100 1009.4
20260902060349 83 126 0.0 5.0 0.00 0.00 0.00 100 1009.4
20260902055839 83 143 3.0 5.0 0.00 0.00 0.00 100 1009.4
20260902055338 83 137 4.0 5.0 0.00 0.00 0.00 100 1009.4
20260902054837 83 130 3.0 6.0 0.00 0.00 0.00 100 1009.4
20260902054337 83 135 5.0 6.0 0.00 0.00 0.00 100 1009.4
20260902053836 83 120 4.0 6.0 0.00 0.00 0.00 100 1009.4
20260902053557 83 133 4.0 6.0 0.00 0.00 0.00 100 1009.4
20260902052836 83 126 4.0 5.0 0.00 0.00 0.00 100 1009.4
20260902052335 83 129 4.0 6.0 0.00 0.00 0.00 100 1009.4
20260902051834 83 126 5.0 6.0 0.00 0.00 0.00 100 1009.4
20260902051334 83 147 4.0 6.0 0.00 0.00 0.00 100 1009.4
20260902050833 83 133 5.0 6.0 0.00 0.00 0.00 100 1009.4
20260902050332 83 125 4.0 6.0 0.00 0.00 0.00 100 1009.4
20260902045831 81 146 4.0 6.0 0.00 0.00 0.00 100 1009.4
20260902045331 81 136 4.0 6.0 0.00 0.00 0.00 100 1009.4
20260902044830 81 140 4.0 6.0 0.00 0.00 0.00 100 1009.4
20260902044330 81 133 5.0 6.0 0.00 0.00 0.00 100 1009.4
20260902043829 82 140 4.0 5.0 0.00 0.00 0.00 100 1009.4
20260902043329 83 139 4.0 5.0 0.00 0.00 0.00 100 1009.4
20260902042828 83 127 4.0 5.0 0.00 0.00 0.00 100 1009.4
20260902042327 83 144 4.0 5.0 0.00 0.00 0.00 100 1009.4
20260902041827 81 142 4.0 5.0 0.00 0.00 0.00 100 1009.4
20260902041326 81 133 4.0 5.0 0.00 0.00 0.00 100 1009.4
20260902040826 81 127 3.0 4.0 0.00 0.00 0.00 100 1009.4
20260902040325 86 136 4.0 4.0 0.00 0.00 0.00 100 1009.4
20260902040049 87 144 3.0 4.0 0.00 0.00 0.00 100 1009.4
20260902035324 83 143 3.0 4.0 0.00 0.00 0.00 100 1009.4
20260902034823 83 130 2.0 3.0 0.00 0.00 0.00 100 1009.4
20260902034323 83 144 3.0 4.0 0.00 0.00 0.00 100 1009.4
20260902033822 83 136 3.0 4.0 0.00 0.00 0.00 100 1009.4
20260902033321 83 142 3.0 5.0 0.00 0.00 0.00 100 1009.4
20260902032820 83 149 3.0 5.0 0.00 0.00 0.00 100 1009.4
20260902032546 83 142 4.0 5.0 0.00 0.00 0.00 100 1009.4
20260902031820 80 268 0.0 0.0 0.00 0.00 0.00 100 1009.4
20260902031253 84 268 0.0 0.0 0.00 0.00 0.00 100 1009.4
20260902030727 80 268 0.0 0.0 0.00 0.00 0.00 100 1009.4
20260902030226 80 268 0.0 0.0 0.00 0.00 0.00 100 1009.4
20260902025718 81 268 0.0 0.0 0.00 0.00 0.00 100 1009.4
20260902025154 82 268 0.0 0.0 0.00 0.00 0.00 100 1009.4
20260902024646 82 268 0.0 0.0 0.00 0.00 0.00 100 1009.4
20260902024146 83 268 0.0 0.0 0.00 0.00 0.00 100 1009.4
20260902023631 85 268 0.0 0.0 0.00 0.00 0.00 100 1009.4
20260902023123 85 268 0.0 0.0 0.00 0.00 0.00 100 1009.4
20260902022612 86 268 0.0 2.0 0.00 0.00 0.00 100 1009.4
20260902022111 88 268 0.0 2.0 0.00 0.00 0.00 100 1009.4
20260902021604 89 268 0.0 4.0 0.00 0.00 0.00 100 1009.4
20260902021102 90 274 0.0 4.0 0.00 0.00 0.00 100 1009.4
20260902020557 90 274 0.0 5.0 0.00 0.00 0.00 100 1009.4
20260902020024 89 260 3.0 5.0 0.00 0.00 0.00 100 1009.4
20260902015022 89 258 3.0 5.0 0.00 0.00 0.00 100 1009.4
20260902014521 90 201 0.0 5.0 0.00 0.00 0.00 100 1009.4
20260902014238 89 243 0.0 6.0 0.00 0.00 0.00 100 1009.4
20260902013449 89 247 3.0 6.0 0.00 0.00 0.00 100 1009.4
20260902012933 90 232 2.0 6.0 0.00 0.00 0.00 100 1009.4
20260902012431 89 227 0.0 6.0 0.00 0.00 0.00 100 1009.4